Grand Junction, CO

6:04 AM MDT on October 15, 2019 (GMT -0600)
Walker

Weather History for KGJT - May, 2019

Change the Weather History Date:

Thursday, May 16, 2019

  Actual Average Record
Temperature  
Mean Temperature 70 °F 62 °F  
Max Temperature 79 °F 76 °F 92 °F (1964)
Min Temperature 60 °F 47 °F 34 °F (1910)
Degree Days  
Heating Degree Days 0 5  
Month to date heating degree days 127 107  
Since 1 July heating degree days 5524 5541  
Cooling Degree Days 5 1  
Month to date cooling degree days 11 13  
Year to date cooling degree days 12 16  
Growing Degree Days 20 (Base 50)    
Moisture  
Dew Point 35 °F    
Average Humidity 31    
Maximum Humidity 43    
Minimum Humidity 18    
Precipitation  
Precipitation 0.00 in 0.03 in 0.96 in (1983)
Month to date precipitation 0.12 0.50  
Year to date precipitation 5.17 3.45  
Snow  
Snow 0.00 in 0.00 in T in (2016)
Month to date snowfall 0.0 0.1  
Since 1 July snowfall 17.4 19.1  
Snow Depth 0.00 in    
Sea Level Pressure  
Sea Level Pressure 29.59 in    
Wind  
Wind Speed 13 mph (SSE)    
Max Wind Speed 28 mph    
Max Gust Speed 38 mph    
Visibility 10 miles    
Events      
T = Trace of Precipitation, MM = Missing Value Source: NWS Daily Summary

Daily Weather History Graph

Daily Weather History Graph

Search for Another Location

Airport or City:

Astronomy

May. 16, 2019 Rise Set
Actual Time 6:00 AM MDT 8:21 PM MDT
Civil Twilight 5:30 AM MDT 8:51 PM MDT
Nautical Twilight 4:52 AM MDT 9:28 PM MDT
Astronomical Twilight 4:11 AM MDT 10:10 PM MDT
Moon 6:05 PM MDT (5/16) 4:58 AM MDT (5/16)
Length of Visible Light 15h 21m
Length of Day
14h 20m
Waxing Gibbous, 94% of the Moon is Illuminated
May 16
Waxing Gibbous
May 18
Full
May 26
Last Quarter
Jun 3
New
Jun 10
First Quarter

Hourly Weather History & Observations

Time (MDT) Temp. Dew Point Humidity Pressure Visibility Wind Dir Wind Speed Gust Speed Precip Events Conditions
12:53 AM 64.9 °F 37.0 °F 36% 29.68 in 10.0 mi ESE 10.4 mph - N/A   Clear
1:53 AM 66.9 °F 37.9 °F 34% 29.68 in 10.0 mi East 13.8 mph - N/A   Clear
2:53 AM 64.0 °F 39.0 °F 40% 29.67 in 10.0 mi East 12.7 mph - N/A   Clear
3:53 AM 63.0 °F 39.0 °F 41% 29.66 in 10.0 mi East 12.7 mph - N/A   Clear
4:53 AM 63.0 °F 39.0 °F 41% 29.67 in 10.0 mi ESE 15.0 mph - N/A   Clear
5:53 AM 62.1 °F 37.9 °F 41% 29.68 in 10.0 mi East 13.8 mph - N/A   Clear
6:53 AM 64.0 °F 37.9 °F 38% 29.70 in 10.0 mi SE 12.7 mph - N/A   Clear
7:53 AM 64.0 °F 39.9 °F 41% 29.71 in 10.0 mi SE 9.2 mph - N/A   Clear
8:53 AM 66.0 °F 41.0 °F 40% 29.70 in 10.0 mi East 9.2 mph - N/A   Clear
9:53 AM 71.1 °F 39.9 °F 32% 29.70 in 10.0 mi ESE 8.1 mph - N/A   Clear
10:53 AM 73.0 °F 37.0 °F 27% 29.68 in 10.0 mi SSE 12.7 mph - N/A   Clear
11:53 AM 73.9 °F 35.1 °F 24% 29.67 in 10.0 mi SSW 12.7 mph - N/A   Clear
12:53 PM 75.0 °F 34.0 °F 22% 29.62 in 10.0 mi South 12.7 mph 28.8 mph N/A   Clear
1:53 PM 75.9 °F 36.0 °F 23% 29.58 in 10.0 mi SSW 15.0 mph 23.0 mph N/A   Clear
2:53 PM 75.9 °F 34.0 °F 22% 29.57 in 10.0 mi South 24.2 mph 32.2 mph N/A   Partly Cloudy
3:53 PM 77.0 °F 33.1 °F 20% 29.53 in 10.0 mi SSW 10.4 mph 23.0 mph N/A   Clear
4:53 PM 78.1 °F 33.1 °F 19% 29.49 in 10.0 mi South 8.1 mph - N/A   Partly Cloudy
5:53 PM 77.0 °F 33.1 °F 20% 29.47 in 10.0 mi SSW 15.0 mph 26.5 mph N/A   Partly Cloudy
6:53 PM 75.0 °F 34.0 °F 22% 29.46 in 10.0 mi South 12.7 mph 23.0 mph N/A   Clear
7:53 PM 75.0 °F 28.0 °F 18% 29.44 in 10.0 mi South 15.0 mph - N/A   Clear
8:53 PM 72.0 °F 34.0 °F 25% 29.45 in 10.0 mi SE 13.8 mph - N/A   Clear
9:53 PM 69.1 °F 34.0 °F 27% 29.46 in 10.0 mi SSE 9.2 mph - N/A   Clear
10:53 PM 68.0 °F 34.0 °F 28% 29.46 in 10.0 mi SE 15.0 mph - N/A   Clear
11:53 PM 69.1 °F 25.0 °F 19% 29.46 in 10.0 mi SSE 15.0 mph - N/A   Clear